| time (UTC) | temp C | wind direction | speed KPH | gust KPH | rain 1hr cm | rain 24hr cm | rain mn cm | humidity % | barometer mb |
| 20260506153216 | 10 | 136 | 6.4 | 12.9 | 0.30 | 5.51 | 0.97 | 89 | 1008.8 |
| 20260506151717 | 11 | 202 | 3.2 | 12.9 | 0.20 | 5.41 | 0.94 | 82 | 1009.0 |
| 20260506150222 | 12 | 18 | 6.4 | 12.9 | 0.00 | 5.51 | 0.89 | 83 | 1008.9 |
| 20260506144719 | 12 | 350 | 1.6 | 11.3 | 0.00 | 5.51 | 0.89 | 81 | 1009.2 |
| 20260506143219 | 12 | 340 | 3.2 | 11.3 | 0.00 | 5.51 | 0.89 | 83 | 1009.0 |
| 20260506141722 | 12 | 348 | 1.6 | 9.7 | 0.00 | 5.51 | 0.89 | 82 | 1009.4 |
| 20260506140222 | 12 | 78 | 4.8 | 9.7 | 0.00 | 5.51 | 0.89 | 84 | 1009.8 |
| 20260506134724 | 11 | 346 | 1.6 | 8.0 | 0.00 | 5.51 | 0.89 | 84 | 1010.1 |
| 20260506133228 | 12 | 71 | 6.4 | 11.3 | 0.00 | 5.51 | 0.89 | 82 | 1010.3 |
| 20260506131729 | 12 | 207 | 1.6 | 12.9 | 0.00 | 5.51 | 0.89 | 85 | 1010.3 |
| 20260506130233 | 11 | 279 | 8.0 | 19.3 | 0.10 | 5.51 | 0.89 | 88 | 1010.3 |
| 20260506124713 | 11 | 183 | 1.6 | 8.0 | 0.10 | 5.51 | 0.89 | 88 | 1010.2 |
| 20260506123213 | 10 | 331 | 0.0 | 9.7 | 0.10 | 5.51 | 0.89 | 90 | 1010.1 |
| 20260506121718 | 11 | 346 | 0.0 | 12.9 | 0.10 | 5.51 | 0.89 | 86 | 1010.1 |
| 20260506120225 | 11 | 302 | 0.0 | 6.4 | 0.00 | 5.59 | 0.86 | 88 | 1010.0 |
| 20260506114724 | 11 | 286 | 3.2 | 4.8 | 0.00 | 5.59 | 0.86 | 88 | 1010.0 |
| 20260506113229 | 10 | 74 | 1.6 | 4.8 | 0.00 | 5.59 | 0.86 | 89 | 1010.1 |
| 20260506111710 | 10 | 355 | 4.8 | 9.7 | 0.00 | 5.59 | 0.86 | 88 | 1010.3 |
| 20260506110212 | 10 | 74 | 4.8 | 12.9 | 0.00 | 5.69 | 0.86 | 91 | 1010.7 |
| 20260506104712 | 9 | 342 | 3.2 | 11.3 | 0.00 | 5.69 | 0.86 | 92 | 1010.8 |
| 20260506103211 | 8 | 44 | 4.8 | 9.7 | 0.10 | 5.69 | 0.86 | 93 | 1010.6 |
| 20260506101715 | 8 | 54 | 6.4 | 14.5 | 0.30 | 5.69 | 0.86 | 91 | 1010.9 |
| 20260506100214 | 8 | 68 | 6.4 | 17.7 | 0.51 | 5.99 | 0.86 | 92 | 1010.9 |
| 20260506094720 | 8 | 83 | 8.0 | 19.3 | 0.79 | 5.99 | 0.86 | 93 | 1010.7 |
| 20260506093220 | 7 | 214 | 3.2 | 8.0 | 0.71 | 5.89 | 0.84 | 94 | 1010.8 |
| 20260506091722 | 8 | 64 | 1.6 | 12.9 | 0.51 | 5.69 | 0.79 | 92 | 1010.7 |
| 20260506090226 | 8 | 76 | 8.0 | 16.1 | 0.30 | 6.81 | 0.74 | 88 | 1010.1 |
| 20260506084727 | 8 | 91 | 6.4 | 22.5 | 0.00 | 6.50 | 0.66 | 85 | 1010.1 |
| 20260506083211 | 9 | 118 | 4.8 | 19.3 | 0.00 | 6.50 | 0.66 | 86 | 1010.0 |
| 20260506081712 | 9 | 136 | 4.8 | 14.5 | 0.00 | 6.50 | 0.66 | 85 | 1010.0 |
| 20260506080212 | 9 | 69 | 9.7 | 17.7 | 0.00 | 7.11 | 0.66 | 84 | 1009.8 |
| 20260506073213 | 9 | 272 | 3.2 | 14.5 | 0.00 | 7.11 | 0.66 | 86 | 1010.1 |
| 20260506071714 | 8 | 92 | 6.4 | 22.5 | 0.00 | 7.11 | 0.66 | 88 | 1010.2 |
| 20260506070215 | 8 | 36 | 3.2 | 12.9 | 0.00 | 7.19 | 0.66 | 89 | 1010.0 |
| 20260506061717 | 7 | 5 | 6.4 | 17.7 | 0.61 | 7.19 | 0.66 | 95 | 1010.7 |
| 20260506060215 | 7 | 47 | 14.5 | 24.1 | 0.99 | 7.19 | 0.66 | 97 | 1010.5 |
| 20260506050221 | 7 | 94 | 1.6 | 4.8 | 0.30 | 6.20 | 0.41 | 97 | 1011.1 |
| 20260506044722 | 7 | 88 | 1.6 | 4.8 | 0.20 | 6.10 | 0.38 | 97 | 1011.3 |
| 20260506043227 | 7 | 118 | 1.6 | 4.8 | 0.10 | 5.99 | 0.36 | 97 | 1011.2 |
| 20260506041726 | 7 | 77 | 3.2 | 6.4 | 0.10 | 5.99 | 0.36 | 97 | 1011.1 |
| 20260506040210 | 8 | 69 | 3.2 | 6.4 | 0.00 | 5.89 | 0.33 | 98 | 1011.0 |
| 20260506034712 | 8 | 76 | 3.2 | 8.0 | 0.00 | 5.89 | 0.33 | 98 | 1011.1 |
| 20260506033211 | 8 | 51 | 3.2 | 8.0 | 0.00 | 5.89 | 0.33 | 98 | 1011.2 |
| 20260506031715 | 8 | 84 | 1.6 | 4.8 | 0.00 | 5.89 | 0.33 | 98 | 1011.4 |
| 20260506030218 | 8 | 66 | 3.2 | 6.4 | 0.00 | 5.89 | 0.33 | 98 | 1011.4 |
| 20260506024715 | 8 | 66 | 0.0 | 0.0 | 0.00 | 5.89 | 0.33 | 98 | 1011.9 |
| 20260506023220 | 8 | 55 | 0.0 | 4.8 | 0.00 | 5.89 | 0.33 | 98 | 1012.1 |
| 20260506021722 | 8 | 151 | 0.0 | 3.2 | 0.30 | 5.89 | 0.33 | 98 | 1012.3 |
| 20260506020227 | 8 | 24 | 1.6 | 3.2 | 0.41 | 5.89 | 0.33 | 98 | 1012.5 |
| 20260506014728 | 8 | 24 | 0.0 | 0.0 | 0.51 | 5.89 | 0.33 | 98 | 1012.4 |
| 20260506013230 | 8 | 342 | 0.0 | 3.2 | 0.71 | 5.89 | 0.33 | 98 | 1012.3 |
| 20260506011714 | 8 | 317 | 0.0 | 0.0 | 0.51 | 5.59 | 0.25 | 98 | 1012.5 |
| 20260506010214 | 8 | 317 | 0.0 | 0.0 | 0.51 | 5.51 | 0.23 | 98 | 1012.6 |
| 20260506004723 | 8 | 317 | 0.0 | 0.0 | 0.41 | 5.41 | 0.20 | 98 | 1012.7 |
| 20260506003214 | 8 | 209 | 0.0 | 0.0 | 0.30 | 5.21 | 0.15 | 98 | 1012.8 |
| 20260506001713 | 8 | 186 | 0.0 | 0.0 | 0.51 | 5.11 | 0.13 | 98 | 1012.9 |
| 20260505234723 | 8 | 135 | 0.0 | 0.0 | 0.41 | 5.00 | 0.10 | 98 | 1013.1 |
| 20260505233223 | 8 | 128 | 0.0 | 0.0 | 0.30 | 4.90 | 0.08 | 98 | 1013.1 |
| 20260505231724 | 8 | 106 | 0.0 | 0.0 | 0.00 | 4.60 | 0.00 | 98 | 1013.2 |
| 20260505230229 | 8 | 106 | 0.0 | 0.0 | 0.00 | 4.60 | 0.00 | 98 | 1013.2 |
| 20260505224730 | 8 | 91 | 1.6 | 3.2 | 0.10 | 4.60 | 0.00 | 98 | 1013.2 |
| 20260505223216 | 8 | 78 | 1.6 | 3.2 | 0.10 | 4.60 | 0.00 | 98 | 1013.3 |
| 20260505221716 | 8 | 59 | 0.0 | 3.2 | 0.30 | 4.60 | 0.00 | 98 | 1013.4 |
| 20260505220216 | 8 | 269 | 0.0 | 3.2 | 0.51 | 4.50 | 1.14 | 98 | 1013.7 |
| 20260505214719 | 8 | 137 | 0.0 | 0.0 | 0.79 | 4.50 | 1.14 | 98 | 1013.7 |
| 20260505213219 | 8 | 137 | 0.0 | 3.2 | 1.09 | 4.50 | 1.14 | 97 | 1013.8 |
| 20260505211722 | 8 | 101 | 1.6 | 4.8 | 0.99 | 4.29 | 1.09 | 97 | 1013.9 |
| 20260505210223 | 8 | 15 | 0.0 | 0.0 | 0.61 | 3.91 | 0.99 | 98 | 1014.0 |
| 20260505204718 | 8 | 344 | 0.0 | 0.0 | 0.41 | 3.71 | 0.94 | 98 | 1014.2 |
| 20260505203222 | 8 | 177 | 0.0 | 0.0 | 0.20 | 3.40 | 0.86 | 98 | 1014.3 |
| 20260505201721 | 8 | 150 | 0.0 | 0.0 | 0.10 | 3.30 | 0.84 | 97 | 1014.1 |
| 20260505200223 | 8 | 196 | 0.0 | 0.0 | 0.10 | 3.30 | 0.84 | 97 | 1014.2 |
| 20260505194721 | 8 | 92 | 0.0 | 4.8 | 0.10 | 3.30 | 0.84 | 97 | 1014.1 |
| 20260505193216 | 8 | 127 | 0.0 | 1.6 | 0.00 | 3.20 | 0.81 | 97 | 1014.1 |
| 20260505191719 | 8 | 128 | 1.6 | 3.2 | 0.20 | 3.20 | 0.81 | 97 | 1014.0 |
| 20260505190218 | 8 | 109 | 1.6 | 4.8 | 0.20 | 3.20 | 0.81 | 97 | 1014.0 |
| 20260505184716 | 8 | 244 | 0.0 | 0.0 | 0.20 | 3.20 | 0.81 | 97 | 1013.9 |
| 20260505183221 | 8 | 244 | 0.0 | 0.0 | 0.20 | 3.20 | 0.81 | 97 | 1014.0 |
| 20260505181724 | 8 | 262 | 0.0 | 1.6 | 0.00 | 3.00 | 0.76 | 97 | 1014.0 |
| 20260505180229 | 8 | 211 | 0.0 | 0.0 | 0.00 | 3.00 | 0.76 | 97 | 1013.9 |
| 20260505174711 | 8 | 211 | 0.0 | 0.0 | 0.00 | 3.00 | 0.76 | 97 | 1013.7 |
| 20260505173229 | 8 | 211 | 0.0 | 3.2 | 0.00 | 3.00 | 0.76 | 97 | 1013.7 |
| 20260505171729 | 8 | 231 | 1.6 | 3.2 | 0.00 | 3.00 | 0.76 | 97 | 1013.7 |
| 20260505170211 | 8 | 234 | 0.0 | 4.8 | 0.00 | 3.00 | 0.76 | 96 | 1013.7 |
| 20260505164714 | 8 | 174 | 0.0 | 0.0 | 0.00 | 3.00 | 0.76 | 96 | 1013.7 |
| 20260505163214 | 8 | 259 | 0.0 | 0.0 | 0.00 | 3.00 | 0.76 | 96 | 1013.8 |
| 20260505161716 | 8 | 259 | 0.0 | 0.0 | 0.10 | 3.00 | 0.76 | 96 | 1013.9 |
| 20260505160222 | 8 | 259 | 0.0 | 0.0 | 0.10 | 3.00 | 0.76 | 96 | 1014.0 |